Regional Weather Roundup
Issued by NWS

Home | Current Version | Previous Version | Graphics & Text | Print | Product List | Glossary Off
Versions: 1 2 3 4 5 6 7 8 9 10 11 12 13 14 15 16 17 18 19 20 21 22 23 24 25 26 27 28 29 30 31 32 33 34 35 36 37 38 39 40 41 42 43 44 45 46 47 48 49 50

000
ASUS43 KMPX 272210
RWRMN
WEATHER ROUNDUP FOR MINNESOTA
NATIONAL WEATHER SERVICE TWIN CITIES/CHANHASSEN MN
500 PM CDT SAT MAY 27 2017


NOTE: "FAIR" INDICATES FEW OR NO CLOUDS BELOW 12,000 FEET WITH NO
SIGNIFICANT WEATHER AND/OR OBSTRUCTIONS TO VISIBILITY. N/A MEANS
CURRENT SKY AND/OR WEATHER CONDITIONS ARE NOT AVAILABLE.

MNZ060>063-068>070-272300-
   Twin Cities Metro

CITY           SKY/WX    TMP DP  RH WIND       PRES   REMARKS
TWIN CITIES    CLOUDY    69  48  47 SW7       29.86F
ST PAUL        CLOUDY    69  51  52 SW6       29.86F
CRYSTAL        CLOUDY    69  46  43 SW9       29.84F
BLAINE         PTSUNNY   72  48  43 SW7       29.84F
LAKEVILLE      PTSUNNY   66  48  52 S5        29.87F
EDEN PRAIRIE   PTSUNNY   69  50  50 S10       29.85F
SOUTH ST PAUL  CLOUDY    67  50  53 SW8       29.86F
LAKE ELMO      FAIR      68  54  60 SW8       29.87F
$$
MNZ001>005-007-008-013>017-022>024-027-028-272300-
   Northwest Minnesota

CITY           SKY/WX    TMP DP  RH WIND       PRES   REMARKS
BEMIDJI        MOSUNNY   75  37  24 SW15      29.75F
HALLOCK        LGT RAIN  66  43  42 W26G37    29.72R
ROSEAU         CLOUDY    73  39  29 SW12G17   29.70F
WARROAD        MOSUNNY   72  43  35 W13G20    29.71S
THIEF RVR FALL PTSUNNY   66  45  46 S10       29.75S
CROOKSTON      CLOUDY    68  48  49 SW14G23   29.74F
FOSSTON        MOSUNNY   73  36  25 W10G18    29.75F
DETROIT LAKES  LGT RAIN  66  41  39 SW7G20    29.81S
MOORHEAD       SUNNY     77  34  20 W17G24    29.75F
PARK RAPIDS    PTSUNNY   73  37  27 W16G22    29.77F
MAHNOMEN       FAIR      75  36  24 SW18      29.74F
$$
MNZ006-009>011-018-025>026-272300-
   North Central Minnesota

CITY           SKY/WX    TMP DP  RH WIND       PRES   REMARKS
BAUDETTE       LGT RAIN  71  42  35 SW9       29.72F
FLAG ISLAND    MOSUNNY   64  45  48 N9        29.70R
INTL FALLS     PTSUNNY   73  37  27 W17G25    29.74R
WASKISH        CLOUDY    72  45  37 SW12      29.75S
BIG FORK       MOSUNNY   73  36  25 SW14G22   29.76S
LONGVILLE      LGT RAIN  61  54  77 E3        29.79F
GRAND RAPIDS   CLOUDY    71  40  32 W8        29.81F
CRANE LAKE     MOSUNNY   73  36  25 S9        29.76F
ORR            MOSUNNY   72  34  25 SW10G17   29.73F
COOK           PTSUNNY   73  39  29 SW7       29.77F
WALKER         FAIR      70  38  31 W10G16    29.78S
$$
MNZ012-019>021-037-272300-
   Northeast Minnesota

CITY           SKY/WX    TMP DP  RH WIND       PRES   REMARKS
DULUTH         MOSUNNY   72  40  31 NW10      29.80F
ELY            MOSUNNY   72  37  28 SW7       29.78F
HIBBING        CLOUDY    73  39  29 SW9G20    29.78F
EVELETH        MOSUNNY   73  25  16 W9        29.79F
DULUTH HARBOR  MOSUNNY   75  45  33 SW8       29.79F
TWO HARBORS    MOSUNNY   75  50  41 S14       29.78F
SILVER BAY     MOSUNNY   72  41  33 S13G23    29.77F
GRAND MARAIS     N/A     54  43  66 SW8       29.80F
G MARAIS ARPRT CLOUDY    64  37  36 S9G16     29.83F
$$
MNZ029>031-032-039>041-046>048-054>057-064-272300-
   West Central Minnesota

CITY           SKY/WX    TMP DP  RH WIND       PRES   REMARKS
FERGUS FALLS   PTSUNNY   73  41  31 W12G20    29.76F
WHEATON        CLOUDY    73  37  27 SW9       29.83S
MORRIS         CLOUDY    73  43  33 SW12      29.82F
ALEXANDRIA     CLOUDY    71  42  35 SW16      29.84F
ELBOW LAKE     PTSUNNY   69  40  35 W17G23    29.82F
WADENA         CLOUDY    72  43  35 SW8       29.80F
GLENWOOD       CLOUDY    70  41  35 SW13      29.85F
APPLETON       CLOUDY    72  39  30 SW6       29.84F
BENSON         CLOUDY    68  46  45 CALM      29.86F
ORTONVILLE     CLOUDY    73  39  29 S6        29.83F
MADISON        CLOUDY    73  46  38 W7        29.85F
WILLMAR        FAIR      72  43  35 W5        29.86F
$$
MNZ033>034-036-042>043-049>051-058-059-272300-
   Central Minnesota

CITY           SKY/WX    TMP DP  RH WIND       PRES   REMARKS
ST CLOUD       CLOUDY    70  42  36 W10       29.84F
SAUK CENTRE    CLOUDY    69  44  39 SW14      29.85F
PAYNESVILLE    CLOUDY    70  38  31 W8        29.86F
AITKIN         CLOUDY    70  45  40 S12       29.81S
PINE RIVER     PTSUNNY   72  46  40 SW15G21   29.84S
BRAINERD       CLOUDY    72  41  32 SW17      29.82F
STAPLES        CLOUDY    70  41  35 SW8       29.82S
LONG PRAIRIE   LGT RAIN  66  45  45 S7        29.85F
LITTLE FALLS   CLOUDY    68  41  37 SW7       29.84F
LITCHFIELD     MOSUNNY   72  46  40 SW6       29.86F
BUFFALO        PTSUNNY   72  41  32 S7        29.86F
MAPLE LAKE     CLOUDY    74  49  40 S6        29.86F
HUTCHINSON     CLOUDY    73  41  32 S3        29.87F
$$
MNZ037-044-045-052-053-272300-
   East Central Minnesota

CITY           SKY/WX    TMP DP  RH WIND       PRES   REMARKS
PRINCETON      MOSUNNY   73  46  38 S5        29.84F
MORA           MOSUNNY   70  43  37 SW6G16    29.85F
CAMBRIDGE      CLOUDY    73  52  46 S3        29.83F
RUSH CITY      CLOUDY    70  46  41 SW5       29.84F
MOOSE LAKE     PTSUNNY   73  45  35 W6        29.80F
HINCKLEY       FAIR      72  46  40 SW10      29.83F
CLOQUET        CLOUDY    72  36  26 W7G16     29.81F
MCGREGOR       CLOUDY    70  43  37 SW9       29.82F
$$
MNZ071>073-080-081-089-090-097-098-272300-
   Southwest Minnesota

CITY           SKY/WX    TMP DP  RH WIND       PRES   REMARKS
MONTEVIDEO     CLOUDY    72  43  35 W3        29.86S
CANBY          CLOUDY    71  46  41 SW12      29.87F
MARSHALL       CLOUDY    70  41  34 W13       29.87F
REDWOOD FALLS  MOSUNNY   73  39  29 W7        29.86F
OLIVIA         MOSUNNY   73  43  33 W8        29.85F
PIPESTONE      CLOUDY    66  46  48 W6        29.90F
WINDOM         MOSUNNY   72  46  40 W7        29.89F
WORTHINGTON    PTSUNNY   68  47  46 W8        29.90F
JACKSON        MOSUNNY   68  45  42 SW6       29.90F
TRACY          PTSUNNY   71  42  34 W6        29.88F
SLAYTON        CLOUDY    67  51  57 SW14      29.90F
$$
MNZ065>067-074>077-082>085-091>093-272300-
   South Central Minnesota

CITY           SKY/WX    TMP DP  RH WIND       PRES   REMARKS
MANKATO        CLOUDY    69  44  40 SW6       29.88F
NEW ULM        MOSUNNY   72  48  43 SW8       29.87F
ST JAMES       SUNNY     70  46  43 S5        29.89F
FAIRMONT       CLOUDY    68  49  50 NW7       29.89F
GLENCOE        CLOUDY    73  46  37 S5        29.85F
FARIBAULT      CLOUDY    70  46  43 W3        29.88F
OWATONNA       CLOUDY    66  41  39 W5        29.88F
WASECA         CLOUDY    68  41  37 SW6       29.90S
ALBERT LEA     PTSUNNY   68  48  49 N6        29.88S
$$
MNZ078>079-086>088-094>096-272300-
   Southeast Minnesota

CITY           SKY/WX    TMP DP  RH WIND       PRES   REMARKS
ROCHESTER      CLOUDY    65  50  58 NW12      29.88F
RED WING       CLOUDY    70  39  32 W8        29.85F
STANTON        CLOUDY    68  43  40 W6        29.86F
DODGE CENTER   CLOUDY    64  45  48 NW3       29.89S
WINONA         CLOUDY    70  48  46 NW3       29.86S
AUSTIN         DRIZZLE   64  46  52 N5        29.88S
PRESTON        CLOUDY    65  46  48 N3        29.90R
$$
ABBREVIATIONS USED IN REMARKS
   TC - TEMPERATURES IN CELSIUS
  WCI - WIND CHILL INDEX
   HX - HEAT INDEX
  VSB - VISIBILITY
$$




USA.gov is the U.S. government's official web portal to all federal, state and local government web resources and services.